TimeEST,TemperatureF,Dew PointF,Humidity,Sea Level PressureIn,VisibilityMPH,Wind Direction,Wind SpeedMPH,Gust SpeedMPH,PrecipitationIn,Events,Conditions,WindDirDegrees,DateUTC
12:00 AM,28.9,9.0,43,29.84,-9999.0,West,12.7,23.0,N/A,,Clear,260,2013-02-01 05:00:00
1:00 AM,28.9,9.0,43,29.85,-9999.0,WSW,8.1,-,N/A,,Clear,250,2013-02-01 06:00:00
2:00 AM,28.9,9.0,43,29.86,-9999.0,WSW,9.2,-,N/A,,Clear,240,2013-02-01 07:00:00
3:00 AM,26.1,10.9,53,29.86,-9999.0,SW,5.8,-,N/A,,Clear,220,2013-02-01 08:00:00
4:00 AM,25.0,12.0,58,29.85,-9999.0,SW,6.9,-,N/A,,Clear,230,2013-02-01 09:00:00
5:00 AM,25.0,12.9,60,29.85,-9999.0,SW,3.5,-,N/A,,Overcast,230,2013-02-01 10:00:00
6:00 AM,26.1,12.9,58,29.86,-9999.0,Calm,Calm,-,N/A,,Overcast,0,2013-02-01 11:00:00
7:00 AM,26.1,17.1,69,29.86,-9999.0,Calm,Calm,-,N/A,,Overcast,0,2013-02-01 12:00:00
8:00 AM,28.9,15.1,56,29.87,-9999.0,West,5.8,-,N/A,,Overcast,260,2013-02-01 13:00:00
9:00 AM,28.9,19.0,67,29.87,-9999.0,West,12.7,-,N/A,Snow,Light Snow,280,2013-02-01 14:00:00
10:00 AM,30.0,17.1,59,29.88,-9999.0,WNW,12.7,18.4,N/A,Snow,Light Snow,290,2013-02-01 15:00:00
10:24 AM,26.6,19.4,74,29.89,-9999.0,NW,13.8,24.2,N/A,Snow,Light Snow,310,2013-02-01 15:24:00
11:00 AM,27.0,19.0,72,29.89,-9999.0,NW,11.5,24.2,N/A,,Overcast,310,2013-02-01 16:00:00
11:07 AM,28.4,17.6,64,29.89,-9999.0,NW,13.8,20.7,N/A,,Overcast,310,2013-02-01 16:07:00
12:00 PM,30.9,8.1,38,29.89,-9999.0,NW,16.1,27.6,N/A,,Scattered Clouds,310,2013-02-01 17:00:00
1:00 PM,30.9,8.1,38,29.92,-9999.0,NW,16.1,28.8,N/A,,Mostly Cloudy,310,2013-02-01 18:00:00
2:00 PM,30.0,8.1,40,29.94,-9999.0,WNW,21.9,35.7,N/A,,Scattered Clouds,290,2013-02-01 19:00:00
3:00 PM,28.9,5.0,36,29.97,-9999.0,WNW,15.0,23.0,N/A,,Scattered Clouds,300,2013-02-01 20:00:00
4:00 PM,30.0,3.9,33,30.02,-9999.0,WNW,18.4,29.9,N/A,,Mostly Cloudy,290,2013-02-01 21:00:00
5:00 PM,28.9,3.0,33,30.06,-9999.0,WNW,18.4,27.6,N/A,,Partly Cloudy,290,2013-02-01 22:00:00
7:00 PM,26.1,7.0,44,30.15,-9999.0,West,11.5,-,N/A,,Clear,280,2013-02-02 00:00:00
8:00 PM,26.1,6.1,43,30.18,-9999.0,West,16.1,-,N/A,,Partly Cloudy,280,2013-02-02 01:00:00
9:00 PM,24.1,6.1,46,30.21,-9999.0,WNW,10.4,-,N/A,,Clear,290,2013-02-02 02:00:00
9:02 PM,-9999,-9999,N/A,-9999,-9999.0,North,-9999.0,-,N/A,,Unknown,0,2013-02-02 02:02:00
10:00 PM,23.0,5.0,46,30.23,-9999.0,West,10.4,-,N/A,,Clear,280,2013-02-02 03:00:00
11:00 PM,23.0,5.0,46,30.25,-9999.0,West,11.5,-,N/A,,Clear,280,2013-02-02 04:00:00